User: anonymous   Login
Location: Unspecified
(0.0000°N, 0.0000°E)
Time: 11:03:58
(UTC+00:00)
Language:

ITAMSAT 1 - Orbit

View from above orbital plane
View from above orbital plane
View from above satellite
View from above satellite

Ground track
Ground track

The orbit data is extracted from the following two-line orbital elements,

1 22826U 93061D   22271.35496698  .00000086  00000-0  50777-4 0  9997
2 22826  98.8740 304.4043 0010063  97.8815 262.3510 14.30542499513126
Epoch (UTC): 28 September 2022 08:31:09
Eccentricity: 0.0010063
inclination: 98.8740°
perigee height: 783 km
apogee height: 797 km
right ascension of ascending node: 304.4043°
argument of perigee: 97.8815°
revolutions per day: 14.30542499
mean anomaly at epoch: 262.3510°
orbit number at epoch: 51312

The dashed part of the orbit path shows where the satellite is in the earth's shadow,  

DLR